Tracking 23099 objects as of 14-May-2021
HD Live streaming from Space Station
objects crossing your sky now

ATLAS F DEB

Track ATLAS F DEB now!
10-day predictions


NORAD ID: 29197
Int'l Code: 1978-047C
Perigee: 598.2 km
Apogee: 5,986.8 km
Inclination: 63.9 °
Period: 157.6 minutes
Semi major axis: 9663 km
RCS: 0.105 m2 (medium)
Launch date: May 13, 1978
Source: United States (US)
Launch site: AIR FORCE WESTERN TEST RANGE (AFWTR)

Note: This is SATELLITE DEBRIS
aabbcc
Your satellite tracking list
Your tracking list is empty




NASA's NSSDC Master Catalog

Two Line Element Set (TLE):
1 29197U 78047C   21133.71634628  .00007385  00000-0  92661-2 0  9990
2 29197  63.8952 323.6615 2788105  83.7126 356.6857  9.13899700574908
Source of the keplerian elements: AFSPC